Spokane Fairchild, WA

4:19 PM PDT on June 27, 2017 (GMT -0700)
Fairchild Air Force Base

Weather History for KSKA - August, 2014

Change the Weather History Date:

Friday, August 8, 2014

  Actual Average Record
Temperature  
Mean Temperature 68 °F -  
Max Temperature 80 °F 84 °F 91 °F (2000)
Min Temperature 57 °F 56 °F 46 °F (2002)
Cooling Degree Days 4    
Growing Degree Days 18 (Base 50)    
Moisture  
Dew Point 41 °F    
Average Humidity 37    
Maximum Humidity 62    
Minimum Humidity 20    
Precipitation  
Precipitation 0.00 in - - ()
Sea Level Pressure  
Sea Level Pressure 29.94 in    
Wind  
Wind Speed 7 mph (SSW)    
Max Wind Speed 13 mph    
Max Gust Speed 24 mph    
Visibility 10 miles    
Events      
Averages and records for this station are not official NWS values.
T = Trace of Precipitation, MM = Missing Value Source: NWS Daily Summary

Daily Weather History Graph

Daily Weather History Graph

Search for Another Location

Airport or City:

Trip Planner

Search our weather history database for the weather conditions in past years. The results will help you decide how hot, cold, wet, or windy it might be!

Date:

Astronomy

Aug. 08, 2014 Rise Set
Actual Time 5:37 AM PDT 8:14 PM PDT
Civil Twilight 5:02 AM PDT 8:49 PM PDT
Nautical Twilight 4:18 AM PDT 9:33 PM PDT
Astronomical Twilight 3:26 AM PDT 10:24 PM PDT
Moon 6:30 PM PDT (8/8) 3:12 AM PDT (8/8)
Length of Visible Light 15h 46m
Length of Day
14h 37m
Waxing Gibbous, 94% of the Moon is Illuminated
Aug 8
Waxing Gibbous
Aug 10
Full
Aug 17
Last Quarter
Aug 25
New
Sep 2
First Quarter

Hourly Weather History & Observations

Time (PDT) Temp. Dew Point Humidity Pressure Visibility Wind Dir Wind Speed Gust Speed Precip Events Conditions
12:58 AM 68.4 °F 41.5 °F 38% 29.89 in 10.0 mi SW 3.5 mph - N/A   Clear
1:58 AM 63.0 °F 40.3 °F 43% 29.88 in 10.0 mi South 3.5 mph - N/A   Clear
2:58 AM 63.9 °F 39.7 °F 41% 29.89 in 10.0 mi South 5.8 mph - N/A   Clear
3:58 AM 61.0 °F 41.2 °F 48% 29.89 in 10.0 mi SSE 8.1 mph - N/A   Clear
4:58 AM 60.1 °F 44.6 °F 57% 29.90 in 10.0 mi South 10.4 mph - N/A   Clear
5:58 AM 57.2 °F 44.4 °F 62% 29.92 in 10.0 mi South 8.1 mph - N/A   Clear
6:58 AM 59.0 °F 45.0 °F 60% 29.94 in 10.0 mi South 8.1 mph - N/A   Clear
7:58 AM 63.3 °F 45.5 °F 52% 29.95 in 10.0 mi South 10.4 mph - N/A   Clear
8:58 AM 68.4 °F 45.3 °F 44% 29.96 in 10.0 mi South 10.4 mph - N/A   Clear
9:58 AM 74.1 °F 43.5 °F 33% 29.95 in 10.0 mi SSW 10.4 mph - N/A   Partly Cloudy
10:58 AM 72.5 °F 43.9 °F 36% 29.97 in 10.0 mi SW 11.5 mph - N/A   Scattered Clouds
11:58 AM 75.0 °F 45.1 °F 34% 29.96 in 10.0 mi SW 11.5 mph - N/A   Mostly Cloudy
12:58 PM 74.5 °F 45.1 °F 35% 29.97 in 10.0 mi SW 11.5 mph - N/A   Scattered Clouds
1:58 PM 76.1 °F 42.4 °F 30% 29.97 in 10.0 mi SSW 12.7 mph - N/A   Scattered Clouds
2:58 PM 78.6 °F 41.2 °F 26% 29.96 in 10.0 mi SW 9.2 mph 24.2 mph N/A   Partly Cloudy
3:19 PM 78.8 °F 37.4 °F 23% 29.98 in 10.0 mi WSW 11.5 mph - N/A   Clear
3:58 PM 80.4 °F 36.9 °F 21% 29.94 in 10.0 mi SSW 8.1 mph - N/A   Clear
4:58 PM 80.6 °F 35.4 °F 20% 29.95 in 10.0 mi WSW 8.1 mph - N/A   Clear
5:58 PM 80.6 °F 37.8 °F 22% 29.94 in 10.0 mi SW 6.9 mph - N/A   Clear
6:58 PM 79.0 °F 38.1 °F 23% 29.93 in 10.0 mi SSW 6.9 mph - 0.00 in   Clear
7:58 PM 72.9 °F 39.2 °F 30% 29.94 in 8.0 mi South 5.8 mph - N/A   Clear
8:58 PM 69.8 °F 37.4 °F 31% 29.96 in 10.0 mi SSW 5.8 mph - 0.00 in   Clear
9:58 PM 68.5 °F 40.3 °F 36% 29.97 in 10.0 mi SSE 4.6 mph - N/A   Clear
10:58 PM 65.8 °F 40.8 °F 40% 29.97 in 10.0 mi SSW 6.9 mph - N/A   Clear
11:58 PM 64.8 °F 40.1 °F 40% 29.98 in 10.0 mi South 3.5 mph - N/A   Clear